Regional Weather Roundup
Issued by NWS Newport/Morehead, NC

Current Version | Previous Version | Graphics & Text | Print | Product List | Glossary Off
Versions: 1 2 3 4 5 6 7 8 9 10 11 12 13 14 15 16 17 18 19 20 21 22 23 24 25 26 27 28 29 30 31 32 33 34 35 36 37 38 39 40 41 42 43 44 45 46 47 48 49 50

000
ASUS42 KMHX 211222
RWRMHX
WEATHER ROUNDUP FOR EASTERN NORTH CAROLINA
NATIONAL WEATHER SERVICE NEWPORT/MOREHEAD CITY NC
700 AM EST SUN DEC 21 2014

NOTE: "FAIR" INDICATES FEW OR NO CLOUDS BELOW 12,000 FEET
WITH NO SIGNIFICANT WEATHER AND/OR OBSTRUCTIONS TO VISIBILITY

NCZ015>017-031-032-045>047-102-103-211300-
NORTH COAST

CITY           SKY/WX    TMP DP  RH WIND       PRES   REMARKS
EDENTON          N/A     30  28  93 N3        30.31R FOG
ELIZABETH CITY MOCLDY    38  30  73 N9        30.30S
KITTY HAWK     SUNNY     40  33  76 N7        30.28R
MANTEO         CLEAR     40  34  80 NE8       30.29S

$$

NCZ045>047-081-094-103-104-211300-
CENTRAL COAST

CITY           SKY/WX    TMP DP  RH WIND       PRES   REMARKS
FRISCO         CLEAR     43  38  82 NE10G18   30.26R
SWANQUARTER      N/A     36 N/A N/A N9        30.24S

$$

NCZ095-097-098-100-101-211300-
SOUTHERN COAST

CITY           SKY/WX    TMP DP  RH WIND       PRES   REMARKS
BEAUFORT       CLOUDY    41  37  86 NE7       30.27R
CEDAR ISLAND     N/A     43 N/A N/A N14G20    30.30S
JACKSONVILLE   CLOUDY    37  34  89 N9        30.27R
PINEY ISLAND   MOSUNNY   44  36  73 NE10      30.27R
WILMINGTON     CLOUDY    38  34  85 N8        30.27R


$$

NCZ011>013-027>030-043-044-078>080-089-090>093-098-211300-
COASTAL PLAIN

CITY           SKY/WX    TMP DP  RH WIND       PRES   REMARKS
AHOSKIE        CLOUDY    32  30  92 CALM      30.32R
CLINTON        MOCLDY    35  34  95 NE3       30.29R
ELIZABETHTOWN  CLOUDY    37  36  98 CALM      30.28R FOG
GOLDSBORO      NOT AVBL
GREENVILLE     CLEAR     28  28 100 CALM      30.31R FOG
HAVELOCK       CLOUDY    38  33  82 NE9       30.29R
KENANSVILLE    MOCLDY    33  33  99 CALM      30.30R
KINSTON        CLEAR     30  30 100 CALM      30.30R FOG
NEW BERN       PTCLDY    36  32  85 N5        30.30R
RICHLANDS      CLOUDY    36  30  80 N7        30.28R
ROCKY MOUNT    MOCLDY    30  28  92 NE5       30.30R
WASHINGTON     CLEAR     32  30  92 CALM      30.30R
WHITEVILLE     CLOUDY    39  34  81 CALM      30.27R

$$

AMZ130-135-150-152-154-156-158-170-250-252-270-ANZ085-086-088-633-658-670-211300-
MARINE OBSERVATIONS

STATION/POSITION TIME  TEMP    WIND        PRES    WAVE   SWELL
                       AIR SEA DIR/SP/G            HT/PER HT/PER
                 (UTC) (F)     (DEG/KT/KT) (MB)    (FT/S) (FT/S)
CHESAPEAKE LIGHT 1200   39      20/ 12/ 13 1026.8
64 E VA BEACH    1200   43 54   10/ 12/ 16 1025.1    2/ 3   2/11
DUCK             1200   42 45   10/ 12/ 15 1024.8
2 E DUCK         1200      46                N/A     2/ 3
10 NE DUCK       1200      52                N/A     3/ 4
OREGON INLET     1200   42 49  360/  8/ 12 1025.5
13E OREGON INLT  1200      52                N/A     3/ 4
HATTERAS CG      1200   44 48   30/ 12/ 18 1024.9
DIAMOND BUOY     1200   49                 1024.1    3/ 4
17 S OCRACOKE    NOT AVBL
CAPE LOOKOUT     1200   44      20/ 10/ 14 1024.4
BEAUFORT LAB     1200   41 52   20/  8/ 12 1023.9
30 SE NEW RIVER  1200   50 61   40/ 19/ 23 1023.7    4/ 5
5 SE WRIGHTSVLE  NOT AVBL
225 S CAPE HAT   1051   67 71   90/ 19/ 23 1020.2    6/ 6   2/11
41 SE CHARLESTON 1200   61 71   20/ 21/ 25 1020.4    6/ 7   2/16

$$


USA.gov is the U.S. government's official web portal to all federal, state and local government web resources and services.